GOES 17

Last updated on Jan. 23, 2021, 7:08 a.m. UTC

1 43226U 18022A   21022.03184716  .00000109  00000-0  00000-0 0  9997
2 43226   0.0493 237.0732 0000752  87.1019  31.6555  1.00274282 10630
UTC
Height (km)
Latitude
Longitude
Inclination
Orbital Period
UTC large
Height (km)
Speed (km/s)
/
Latitude / Longitude
Inclination (degrees)
Orbital Period (minutes)
Azimuth
Elevation
Range (km)
Doppler Factor
iOS Compass Heading
iOS Angle

Next 30 passes for location: Hong Kong

Rise time Rise Azimuth (degrees) Set time Set Azimuth (degrees) Duration Max altitude (degrees)

No matching passes for this satellites